Time,TemperatureF,DewpointF,PressureIn,WindDirection,WindDirectionDegrees,WindSpeedMPH,WindSpeedGustMPH,Humidity,HourlyPrecipIn,Conditions,Clouds,dailyrainin,SoftwareType,DateUTC
2013-06-16 00:09:00,65.8,62.0,29.82,East,89,0.0,0.0,88,0.00,,,0.00,weatherlink.com 1.10,2013-06-16 04:09:00,
2013-06-16 00:24:00,65.8,63.0,29.82,NNW,335,0.0,0.0,89,0.00,,,0.00,weatherlink.com 1.10,2013-06-16 04:24:00,
2013-06-16 00:39:00,65.9,63.0,29.83,SW,223,0.0,0.0,89,0.00,,,0.00,weatherlink.com 1.10,2013-06-16 04:39:00,
2013-06-16 00:54:00,66.0,63.0,29.83,WSW,249,0.0,0.0,90,0.00,,,0.00,weatherlink.com 1.10,2013-06-16 04:54:00,
2013-06-16 01:09:00,65.6,63.0,29.83,WSW,250,0.0,0.0,92,0.05,,,0.05,weatherlink.com 1.10,2013-06-16 05:09:00,
2013-06-16 01:24:00,65.3,64.0,29.80,ESE,113,0.0,0.0,94,0.11,,,0.11,weatherlink.com 1.10,2013-06-16 05:24:00,
2013-06-16 01:39:00,65.1,64.0,29.77,SE,127,0.0,0.0,95,0.13,,,0.13,weatherlink.com 1.10,2013-06-16 05:39:00,
2013-06-16 01:54:00,65.0,64.0,29.79,SE,127,0.0,0.0,95,0.19,,,0.19,weatherlink.com 1.10,2013-06-16 05:54:00,
2013-06-16 02:09:00,65.0,64.0,29.77,ESE,110,0.0,0.0,96,0.75,,,0.80,weatherlink.com 1.10,2013-06-16 06:09:00,
2013-06-16 02:24:00,65.1,64.0,29.78,NW,321,0.0,0.0,96,1.03,,,1.14,weatherlink.com 1.10,2013-06-16 06:24:00,
2013-06-16 02:39:00,65.1,64.0,29.78,NW,304,0.0,0.0,97,1.26,,,1.39,weatherlink.com 1.10,2013-06-16 06:39:00,
2013-06-16 02:54:00,65.0,64.0,29.74,East,88,0.0,0.0,97,1.22,,,1.42,weatherlink.com 1.10,2013-06-16 06:54:00,
2013-06-16 03:09:00,65.1,64.0,29.75,SW,233,0.0,0.0,97,0.61,,,1.42,weatherlink.com 1.10,2013-06-16 07:09:00,
2013-06-16 03:24:00,65.4,65.0,29.76,WNW,287,0.0,0.0,97,0.27,,,1.42,weatherlink.com 1.10,2013-06-16 07:24:00,
2013-06-16 03:39:00,65.4,65.0,29.77,NW,312,0.0,0.0,97,0.02,,,1.42,weatherlink.com 1.10,2013-06-16 07:39:00,
2013-06-16 03:54:00,65.2,64.0,29.77,West,281,0.0,0.0,97,0.00,,,1.42,weatherlink.com 1.10,2013-06-16 07:54:00,
2013-06-16 04:09:00,65.0,64.0,29.76,West,270,0.0,0.0,97,0.00,,,1.42,weatherlink.com 1.10,2013-06-16 08:09:00,
2013-06-16 04:24:00,64.7,64.0,29.76,WSW,242,0.0,0.0,97,0.00,,,1.42,weatherlink.com 1.10,2013-06-16 08:24:00,
2013-06-16 04:39:00,64.6,64.0,29.76,WNW,294,0.0,0.0,97,0.00,,,1.42,weatherlink.com 1.10,2013-06-16 08:39:00,
2013-06-16 04:54:00,64.5,64.0,29.76,NW,305,0.0,0.0,97,0.00,,,1.42,weatherlink.com 1.10,2013-06-16 08:54:00,
2013-06-16 05:09:00,64.5,64.0,29.76,WSW,240,0.0,0.0,97,0.00,,,1.42,weatherlink.com 1.10,2013-06-16 09:09:00,
2013-06-16 05:24:00,64.5,64.0,29.76,WNW,288,0.0,0.0,97,0.00,,,1.42,weatherlink.com 1.10,2013-06-16 09:24:00,
2013-06-16 05:39:00,64.3,64.0,29.76,WNW,288,0.0,0.0,97,0.00,,,1.42,weatherlink.com 1.10,2013-06-16 09:39:00,
2013-06-16 05:54:00,64.3,64.0,29.75,WNW,293,0.0,0.0,97,0.00,,,1.42,weatherlink.com 1.10,2013-06-16 09:54:00,
2013-06-16 06:09:00,64.2,63.0,29.76,WNW,290,0.0,0.0,97,0.00,,,1.42,weatherlink.com 1.10,2013-06-16 10:09:00,
2013-06-16 06:24:00,64.2,63.0,29.76,WNW,288,0.0,0.0,97,0.00,,,1.42,weatherlink.com 1.10,2013-06-16 10:24:00,
2013-06-16 06:39:00,64.2,63.0,29.77,WNW,285,0.0,0.0,97,0.00,,,1.42,weatherlink.com 1.10,2013-06-16 10:39:00,
2013-06-16 06:54:00,64.3,64.0,29.77,WNW,296,0.0,0.0,97,0.00,,,1.42,weatherlink.com 1.10,2013-06-16 10:54:00,
2013-06-16 07:09:00,64.3,64.0,29.77,WNW,298,0.0,0.0,97,0.00,,,1.42,weatherlink.com 1.10,2013-06-16 11:09:00,
2013-06-16 07:24:00,64.2,63.0,29.78,WNW,297,0.0,0.0,97,0.00,,,1.42,weatherlink.com 1.10,2013-06-16 11:24:00,
2013-06-16 07:39:00,63.9,63.0,29.79,West,278,0.0,0.0,97,0.00,,,1.42,weatherlink.com 1.10,2013-06-16 11:39:00,
2013-06-16 07:54:00,63.2,62.0,29.79,WNW,287,0.0,0.0,96,0.00,,,1.42,weatherlink.com 1.10,2013-06-16 11:54:00,
2013-06-16 08:09:00,63.0,62.0,29.79,WNW,292,0.0,0.0,97,0.00,,,1.42,weatherlink.com 1.10,2013-06-16 12:09:00,
2013-06-16 08:24:00,63.1,62.0,29.80,WNW,287,0.0,0.0,97,0.00,,,1.42,weatherlink.com 1.10,2013-06-16 12:24:00,
2013-06-16 08:39:00,63.3,63.0,29.80,WNW,295,0.0,0.0,97,0.00,,,1.42,weatherlink.com 1.10,2013-06-16 12:39:00,
2013-06-16 08:54:00,63.4,63.0,29.81,WNW,294,0.0,0.0,97,0.00,,,1.42,weatherlink.com 1.10,2013-06-16 12:54:00,
2013-06-16 09:09:00,63.5,63.0,29.82,West,264,0.0,0.0,97,0.00,,,1.42,weatherlink.com 1.10,2013-06-16 13:09:00,
2013-06-16 09:24:00,63.8,63.0,29.82,WNW,294,0.0,0.0,97,0.00,,,1.42,weatherlink.com 1.10,2013-06-16 13:24:00,
2013-06-16 09:39:00,64.1,63.0,29.82,WNW,294,0.0,0.0,97,0.00,,,1.42,weatherlink.com 1.10,2013-06-16 13:39:00,
2013-06-16 09:54:00,64.2,63.0,29.82,WNW,302,0.0,0.0,97,0.00,,,1.42,weatherlink.com 1.10,2013-06-16 13:54:00,
2013-06-16 10:09:00,64.6,64.0,29.82,WNW,302,0.0,0.0,97,0.00,,,1.42,weatherlink.com 1.10,2013-06-16 14:09:00,
2013-06-16 10:24:00,64.9,64.0,29.82,WNW,302,0.0,0.0,97,0.00,,,1.42,weatherlink.com 1.10,2013-06-16 14:24:00,
2013-06-16 10:39:00,65.7,65.0,29.82,WNW,292,0.0,0.0,96,0.00,,,1.42,weatherlink.com 1.10,2013-06-16 14:39:00,
2013-06-16 10:54:00,66.8,65.0,29.82,West,263,0.0,0.0,95,0.00,,,1.42,weatherlink.com 1.10,2013-06-16 14:54:00,
2013-06-16 11:09:00,68.0,66.0,29.82,NW,304,0.0,0.0,93,0.00,,,1.42,weatherlink.com 1.10,2013-06-16 15:09:00,
2013-06-16 11:25:00,69.1,66.0,29.82,NW,314,0.0,0.0,89,0.00,,,1.42,weatherlink.com 1.10,2013-06-16 15:25:00,
2013-06-16 11:40:00,70.1,65.0,29.82,WNW,287,0.0,0.0,85,0.00,,,1.42,weatherlink.com 1.10,2013-06-16 15:40:00,
2013-06-16 11:55:00,70.7,66.0,29.82,WNW,285,0.0,0.0,85,0.00,,,1.42,weatherlink.com 1.10,2013-06-16 15:55:00,
2013-06-16 12:10:00,71.6,67.0,29.82,WNW,297,0.0,0.0,84,0.00,,,1.42,weatherlink.com 1.10,2013-06-16 16:10:00,
2013-06-16 12:25:00,72.7,67.0,29.82,WNW,293,0.0,0.0,82,0.00,,,1.42,weatherlink.com 1.10,2013-06-16 16:25:00,
2013-06-16 12:40:00,73.4,67.0,29.82,West,259,0.0,0.0,80,0.00,,,1.42,weatherlink.com 1.10,2013-06-16 16:40:00,
2013-06-16 12:55:00,74.4,67.0,29.82,SSE,148,0.0,0.0,78,0.00,,,1.42,weatherlink.com 1.10,2013-06-16 16:55:00,
2013-06-16 13:10:00,74.0,67.0,29.82,NW,305,0.0,0.0,79,0.00,,,1.42,weatherlink.com 1.10,2013-06-16 17:10:00,
2013-06-16 13:25:00,74.9,67.0,29.82,WSW,245,0.0,0.0,77,0.00,,,1.42,weatherlink.com 1.10,2013-06-16 17:25:00,
2013-06-16 13:40:00,74.4,67.0,29.81,West,276,0.0,0.0,77,0.00,,,1.42,weatherlink.com 1.10,2013-06-16 17:40:00,
2013-06-16 13:55:00,74.9,67.0,29.82,NW,304,0.0,0.0,77,0.00,,,1.42,weatherlink.com 1.10,2013-06-16 17:55:00,
2013-06-16 14:10:00,74.6,66.0,29.82,WNW,297,0.0,0.0,75,0.00,,,1.42,weatherlink.com 1.10,2013-06-16 18:10:00,
2013-06-16 14:25:00,74.7,66.0,29.82,NW,322,0.0,0.0,74,0.00,,,1.42,weatherlink.com 1.10,2013-06-16 18:25:00,
2013-06-16 14:55:00,75.1,66.0,29.82,SE,127,0.0,0.0,74,0.00,,,1.42,weatherlink.com 1.10,2013-06-16 18:55:00,
2013-06-16 15:10:00,75.4,67.0,29.81,WSW,242,0.0,0.0,74,0.00,,,1.42,weatherlink.com 1.10,2013-06-16 19:10:00,
2013-06-16 15:25:00,75.7,65.0,29.80,West,270,0.0,0.0,69,0.00,,,1.42,weatherlink.com 1.10,2013-06-16 19:25:00,
2013-06-16 15:40:00,75.8,63.0,29.81,WNW,284,0.0,0.0,64,0.00,,,1.42,weatherlink.com 1.10,2013-06-16 19:40:00,
2013-06-16 15:55:00,75.6,62.0,29.81,West,264,0.0,0.0,63,0.00,,,1.42,weatherlink.com 1.10,2013-06-16 19:55:00,
2013-06-16 16:10:00,75.5,61.0,29.81,WSW,250,0.0,0.0,61,0.00,,,1.42,weatherlink.com 1.10,2013-06-16 20:10:00,
2013-06-16 16:25:00,75.7,62.0,29.81,NW,308,0.0,0.0,62,0.00,,,1.42,weatherlink.com 1.10,2013-06-16 20:25:00,
2013-06-16 16:40:00,75.9,62.0,29.81,West,273,0.0,0.0,63,0.00,,,1.42,weatherlink.com 1.10,2013-06-16 20:40:00,
2013-06-16 16:55:00,76.0,63.0,29.82,NW,308,0.0,0.0,65,0.00,,,1.42,weatherlink.com 1.10,2013-06-16 20:55:00,
2013-06-16 17:10:00,75.3,62.0,29.81,WSW,237,0.0,0.0,63,0.00,,,1.42,weatherlink.com 1.10,2013-06-16 21:10:00,
2013-06-16 17:25:00,75.4,63.0,29.82,SW,214,0.0,0.0,65,0.00,,,1.42,weatherlink.com 1.10,2013-06-16 21:25:00,
2013-06-16 17:40:00,75.3,62.0,29.82,WSW,255,0.0,0.0,64,0.00,,,1.42,weatherlink.com 1.10,2013-06-16 21:40:00,
2013-06-16 17:55:00,75.3,62.0,29.82,West,271,0.0,0.0,63,0.00,,,1.42,weatherlink.com 1.10,2013-06-16 21:55:00,
2013-06-16 18:10:00,75.3,62.0,29.82,WNW,297,0.0,0.0,63,0.00,,,1.42,weatherlink.com 1.10,2013-06-16 22:10:00,
2013-06-16 18:25:00,75.4,62.0,29.82,WNW,297,0.0,0.0,63,0.00,,,1.42,weatherlink.com 1.10,2013-06-16 22:25:00,
2013-06-16 18:40:00,75.5,60.0,29.82,NW,314,0.0,0.0,59,0.00,,,1.42,weatherlink.com 1.10,2013-06-16 22:40:00,
2013-06-16 18:55:00,75.6,61.0,29.82,WNW,283,0.0,0.0,61,0.00,,,1.42,weatherlink.com 1.10,2013-06-16 22:55:00,
2013-06-16 19:10:00,75.3,62.0,29.82,NW,312,0.0,0.0,64,0.00,,,1.42,weatherlink.com 1.10,2013-06-16 23:10:00,
2013-06-16 19:25:00,75.0,61.0,29.82,WNW,283,0.0,0.0,61,0.00,,,1.42,weatherlink.com 1.10,2013-06-16 23:25:00,
2013-06-16 19:40:00,75.0,61.0,29.82,WNW,290,0.0,0.0,62,0.00,,,1.42,weatherlink.com 1.10,2013-06-16 23:40:00,
2013-06-16 19:55:00,74.8,61.0,29.82,WNW,297,0.0,0.0,63,0.00,,,1.42,weatherlink.com 1.10,2013-06-16 23:55:00,
2013-06-16 20:10:00,74.6,61.0,29.82,WNW,293,0.0,0.0,63,0.00,,,1.42,weatherlink.com 1.10,2013-06-17 00:10:00,
2013-06-16 20:25:00,74.1,61.0,29.82,WNW,288,0.0,0.0,64,0.00,,,1.42,weatherlink.com 1.10,2013-06-17 00:25:00,
2013-06-16 20:40:00,73.7,61.0,29.82,WNW,289,0.0,0.0,65,0.00,,,1.42,weatherlink.com 1.10,2013-06-17 00:40:00,
2013-06-16 20:56:00,71.9,63.0,29.83,WNW,289,0.0,0.0,73,0.00,,,1.42,weatherlink.com 1.10,2013-06-17 00:56:00,
2013-06-16 21:11:00,70.3,62.0,29.83,WNW,290,0.0,0.0,75,0.00,,,1.42,weatherlink.com 1.10,2013-06-17 01:11:00,
2013-06-16 21:26:00,69.1,61.0,29.83,WNW,290,0.0,0.0,76,0.00,,,1.42,weatherlink.com 1.10,2013-06-17 01:26:00,
2013-06-16 21:41:00,68.0,61.0,29.83,WNW,290,0.0,0.0,78,0.00,,,1.42,weatherlink.com 1.10,2013-06-17 01:41:00,
2013-06-16 21:56:00,67.4,61.0,29.83,WNW,290,0.0,0.0,81,0.00,,,1.42,weatherlink.com 1.10,2013-06-17 01:56:00,
2013-06-16 22:11:00,66.7,61.0,29.83,WNW,290,0.0,0.0,83,0.00,,,1.42,weatherlink.com 1.10,2013-06-17 02:11:00,
2013-06-16 22:26:00,66.0,61.0,29.83,WNW,290,0.0,0.0,83,0.00,,,1.42,weatherlink.com 1.10,2013-06-17 02:26:00,
2013-06-16 22:41:00,65.5,60.0,29.84,WNW,289,0.0,0.0,83,0.00,,,1.42,weatherlink.com 1.10,2013-06-17 02:41:00,
2013-06-16 22:56:00,65.1,60.0,29.84,WNW,285,0.0,0.0,82,0.00,,,1.42,weatherlink.com 1.10,2013-06-17 02:56:00,
2013-06-16 23:11:00,64.4,60.0,29.84,WNW,285,0.0,0.0,84,0.00,,,1.42,weatherlink.com 1.10,2013-06-17 03:11:00,
2013-06-16 23:26:00,63.8,59.0,29.83,WNW,285,0.0,0.0,85,0.00,,,1.42,weatherlink.com 1.10,2013-06-17 03:26:00,
2013-06-16 23:41:00,63.2,59.0,29.83,SSW,200,0.0,0.0,85,0.00,,,1.42,weatherlink.com 1.10,2013-06-17 03:41:00,
2013-06-16 23:56:00,62.8,59.0,29.83,SSW,201,0.0,0.0,87,0.00,,,1.42,weatherlink.com 1.10,2013-06-17 03:56:00,